Overview Statistics Trail Chart Weather Telemetry Raw packets
 

This is the latest recevied weather packets stored in our database for station/object KE8WMS. If no packets are shown the sender has not sent any weather packets the latest 10 day(s).

<< 24 25 26 27 28 29 30 >>
Time Temp. Humidity Pressure Rain* Wind** Luminosity Snow
1777663820 5° C 95% 1010.9 hPa 0 mm - 456 W/m² -
1777663516 5° C 95% 1010.9 hPa 0 mm - 259 W/m² -
1777663214 5° C 96% 1011.1 hPa 0 mm - 198 W/m² -
1777662910 5° C 96% 1010.8 hPa 1.27 mm - 151 W/m² -
1777662608 5° C 96% 1011 hPa 1.27 mm - 245 W/m² -
1777662303 5° C 96% 1011 hPa 0 mm - 185 W/m² -
1777661999 5° C 96% 1010.9 hPa 1.78 mm - 173 W/m² -
1777661695 5° C 97% 1010.7 hPa 1.78 mm - 157 W/m² -
1777661391 5° C 97% 1010.8 hPa 1.78 mm - 112 W/m² -
1777661088 5° C 96% 1010.7 hPa 1.78 mm - 118 W/m² -
1777660782 5° C 96% 1010.8 hPa 1.27 mm - 96 W/m² -
1777660479 5° C 96% 1010.8 hPa 1.27 mm - 103 W/m² -
1777660176 5° C 96% 1010.6 hPa 0 mm - 78 W/m² -
1777659873 5° C 96% 1010.6 hPa 1.78 mm - 62 W/m² -
1777659570 5° C 96% 1010.4 hPa 1.78 mm - 55 W/m² -
1777659267 5.56° C 96% 1010.5 hPa 1.27 mm - 62 W/m² -
1777658964 5.56° C 95% 1010.3 hPa 1.27 mm - 81 W/m² -
1777658661 5.56° C 95% 1010.3 hPa 0 mm - 94 W/m² -
1777658357 5.56° C 95% 1010.4 hPa 0 mm - 90 W/m² -
1777658054 5.56° C 95% 1010.2 hPa 0 mm - 130 W/m² -
1777657751 5.56° C 95% 1010.2 hPa 0 mm - 174 W/m² -
1777657449 6.11° C 95% 1010.1 hPa 0 mm - 168 W/m² -
1777657146 5.56° C 96% 1009.9 hPa 1.78 mm - 203 W/m² -
1777656844 5.56° C 95% 1010 hPa 1.78 mm - 225 W/m² -
1777656539 5.56° C 96% 1010.1 hPa 0 mm - 137 W/m² -

* Rain latest hour (hover to see other rain measurements)
** Current wind speed in m/s (hover to see current wind gust speed)